#timestamp,LO_Frequency,Hit,StdDev 
1627466415.7,286047000.3,N
1627466435.6,286047000.5,N
1627466455.4,286047000.3,N
1627466475.2,286047001.1,N
1627466495.1,286047000.7,N
1627466496.0,286047000.7,N
1627466515.8,286046998.5,N
1627466535.7,286047000.6,N
1627466555.5,286047000.5,N
1627466575.3,286047000.4,N
1627466595.2,286047000.4,N
1627466615.0,286047002.4,N
1627466615.9,286047002.4,N
1627466635.8,286047000.5,N
1627466655.6,286047000.5,N
1627466675.4,286047000.5,N
1627466695.3,286046998.5,N
1627466715.1,286046998.3,N
1627466735.8,286046999.2,N
1627466755.7,286046998.9,N
1627466775.5,286046998.4,N
1627466795.3,286047000.7,N
1627466815.2,286047001.1,N
1627466835.0,286047000.3,N
1627466835.9,286047000.3,N
1627466855.8,286047000.8,N
1627466875.6,286047000.7,N
1627466895.4,286047001.2,N
1627466915.3,286046999.9,N
1627466935.1,286047000.1,N
1627466955.9,286047000.0,N
1627466975.7,286047000.0,N
1627466995.5,286046999.9,N
1627467015.4,286047000.4,N
1627467035.2,286047000.6,N
1627467055.0,286046998.1,N
1627467055.9,286046998.1,N
1627467075.8,286047000.6,N
1627467095.6,286047000.6,N
1627467115.5,286047001.0,N
1627467135.3,286046998.3,N
1627467155.1,286046998.3,N
1627467175.9,286046998.6,N
1627467195.7,286047001.1,N
1627467215.6,286047000.5,N
1627467235.4,286047000.9,N
1627467255.2,286047000.9,N
1627467275.1,286046998.1,N
1627467276.0,286046998.1,N
1627467295.8,286047000.7,N
1627467315.6,286046998.3,N
1627467335.5,286046998.1,N
1627467355.3,286046998.3,N
1627467375.2,286046998.5,N
1627467395.9,286046998.9,N
1627467415.7,286046998.5,N
1627467435.6,286046998.6,N
1627467455.4,286046999.0,N
1627467475.2,286046998.1,N
1627467495.1,286047000.7,N
1627467496.0,286047000.7,N
1627467515.8,286047001.0,N
1627467535.7,286047001.1,N
1627467555.5,286046998.1,N
1627467575.4,286046999.0,N
1627467595.2,286046998.2,N
1627467615.0,286046998.3,N
1627467615.9,286046998.3,N
1627467635.8,286046998.8,N
1627467655.6,286046998.6,N
1627467675.5,286046999.0,N
1627467695.3,286046998.9,N
1627467715.1,286046998.9,N
1627467735.9,286046999.6,N
1627467755.7,286046999.3,N
1627467775.5,286046999.5,N
1627467795.4,286046997.0,Y
1627467815.2,286046998.3,P
1627467835.1,286047001.1,N
1627467836.0,286047001.1,N
1627467855.8,286047000.8,N
1627467875.6,286047001.0,N
1627467895.5,286047000.8,N
1627467915.3,286047000.8,N
1627467935.2,286046998.3,N
1627467955.9,286046998.9,N
1627467975.7,286046999.5,N
1627467995.6,286046996.8,N
1627468015.4,286046996.7,N
1627468035.2,286046997.6,N
1627468055.1,286046998.0,N
1627468056.0,286046998.0,N
1627468075.8,286046996.7,N
1627468095.7,286046996.7,N
1627468115.5,286046999.4,N
1627468135.3,286046996.6,N
1627468155.2,286046999.5,N
1627468175.9,286046999.5,N
1627468195.7,286046999.1,N
1627468215.6,286046999.2,N
1627468235.4,286046996.9,N
1627468255.2,286046996.9,N
1627468275.1,286046996.6,N
1627468276.0,286046996.6,N
1627468295.8,286046997.9,N
1627468315.7,286046995.4,N
1627468335.5,286046995.7,N
1627468355.3,286046995.3,N
1627468375.2,286046997.1,N
1627468395.0,286046997.5,N
1627468395.9,286046997.5,N
1627468415.7,286046996.8,N
1627468435.6,286046995.1,Y
1627468455.4,286046998.9,P
1627468475.3,286046998.6,N
1627468495.1,286046998.9,N
1627468515.8,286046999.0,N
1627468535.7,286046998.4,Y
1627468555.5,286046999.3,P
1627468575.4,286046998.7,P
1627468595.2,286046996.7,P
1627468615.0,286046997.1,N
1627468615.9,286046997.1,N
1627468635.8,286046999.2,N
1627468655.6,286046996.9,Y
1627468675.5,286046998.2,P
1627468695.3,286046999.7,P
1627468715.1,286046999.9,N
1627468735.9,286047000.1,N
1627468755.7,286047002.4,N
1627468775.5,286047002.3,N
1627468795.4,286047002.1,N
1627468815.2,286047002.0,N
1627468835.1,286047002.1,N
1627468836.0,286047002.1,N
1627468855.8,286047001.8,N
1627468875.6,286047004.4,N
1627468895.5,286047003.9,N
1627468915.3,286047003.7,N
1627468935.2,286047001.5,N
1627468955.9,286047001.8,N
1627468975.7,286047004.3,N
1627468995.6,286047004.0,N
1627469015.4,286047004.2,N
1627469035.2,286047003.2,N
1627469055.1,286047003.7,N
1627469056.0,286047003.7,N
1627469075.8,286047003.4,N
1627469095.7,286047003.6,N
1627469115.5,286047001.4,N
1627469135.3,286047002.1,N
1627469155.2,286047002.5,N
1627469175.0,286047001.8,N
1627469175.9,286047001.8,N
1627469195.7,286047003.9,N
1627469215.6,286047003.4,N
1627469235.4,286047003.8,N
1627469255.3,286047003.4,N
1627469275.1,286047003.3,Y
1627469295.8,286047000.2,P
1627469315.7,286047000.1,N
1627469335.5,286047000.0,N
1627469355.4,286046998.3,N
1627469375.2,286047001.0,N
1627469395.0,286046998.2,N
1627469395.9,286046998.2,N
1627469415.8,286046998.4,N
1627469435.6,286046998.6,N
1627469455.5,286046998.8,N
1627469475.3,286046998.2,N
1627469495.1,286046998.5,N
1627469515.9,286047000.7,N
1627469535.7,286047001.0,N
1627469555.5,286047000.4,N
1627469575.4,286046999.9,N
1627469595.2,286047000.0,N
1627469615.1,286047000.0,N
1627469616.0,286047000.0,N
1627469635.8,286046999.8,N
1627469655.6,286047002.7,N
1627469675.5,286046999.8,N
1627469695.3,286047000.2,N
1627469715.2,286047000.1,N
1627469735.9,286047000.2,N
1627469755.7,286047000.9,N
1627469775.6,286047001.0,N
1627469795.4,286047000.7,N
1627469815.2,286046998.2,N
1627469835.1,286047000.8,N
1627469836.0,286047000.8,N
1627469855.8,286046998.3,N
1627469875.7,286046998.2,N
1627469895.5,286046998.2,N
1627469915.4,286047000.9,N
1627469935.2,286047001.0,N
1627469955.0,286047001.0,N
1627469955.9,286047001.0,N
1627469975.8,286047001.1,N
1627469995.6,286046998.4,N
